Location: Seattle
(47.6064°N, 122.3308°W)
Time: 15:16:09
(UTC-07:00)

Tiros 1 - Visible Passes

Search period start: 29 July 2021 00:00
Search period end: 08 August 2021 00:00
Orbit: 630 x 663 km, 48.4° (Epoch: 28 July)

Date Brightness Start Highest point End Pass type
(mag) Time Alt. Az. Time Alt. Az. Time Alt. Az.
29 Jul 7.0 00:17:09 10° W 00:21:54 87° SSW 00:22:49 58° ESE visible
29 Jul 9.2 01:59:32 10° W 02:00:25 15° W 02:00:25 15° W visible
29 Jul 7.2 21:18:35 10° WSW 21:23:20 76° SSE 21:28:04 10° ENE visible
29 Jul 7.2 23:00:51 10° W 23:05:37 81° N 23:09:19 16° E visible
30 Jul 7.5 00:43:09 10° WNW 00:46:56 51° WSW 00:46:56 51° WSW visible
30 Jul 7.2 21:44:32 10° W 21:49:19 85° N 21:54:03 10° E visible
30 Jul 7.0 23:26:52 10° W 23:31:38 89° S 23:33:30 37° ESE visible
31 Jul 8.8 01:09:15 10° W 01:11:07 22° W 01:11:07 22° W visible
31 Jul 7.2 22:10:34 10° W 22:15:21 80° N 22:20:04 10° E visible
31 Jul 7.0 23:52:52 10° WNW 23:57:34 65° SSW 23:57:46 64° S visible
01 Aug 7.1 22:36:36 10° W 22:41:22 90° N 22:44:27 22° ESE visible
02 Aug 8.2 00:18:56 10° W 00:22:04 33° WSW 00:22:04 33° WSW visible
02 Aug 7.3 21:20:17 10° W 21:25:04 80° N 21:29:49 10° E visible
02 Aug 7.1 23:02:35 10° WNW 23:07:18 68° SSW 23:08:48 42° SE visible
03 Aug 9.3 00:45:18 10° W 00:46:25 15° W 00:46:25 15° W visible
03 Aug 7.2 21:46:18 10° W 21:51:06 88° NNE 21:55:34 11° E visible
03 Aug 7.6 23:28:38 10° W 23:33:07 43° SSW 23:33:11 43° SSW visible
04 Aug 7.2 22:12:18 10° WNW 22:17:03 71° SSW 22:19:59 23° ESE visible
04 Aug 8.7 23:54:56 10° W 23:57:37 22° WSW 23:57:37 22° WSW visible
05 Aug 7.6 22:38:20 10° W 22:42:53 45° SSW 22:44:27 33° SSE visible
06 Aug 7.2 21:22:01 10° WNW 21:26:47 74° SSW 21:31:20 11° ESE visible
06 Aug 8.4 23:04:36 10° W 23:08:32 26° SW 23:08:58 26° SSW visible
07 Aug 7.6 21:48:02 10° W 21:52:38 48° SSW 21:55:53 18° SE visible
07 Aug 9.3 23:31:41 10° WSW 23:33:31 13° SW 23:33:31 13° SW visible
